Location: *
(35.2348°S, 91.3916°E)
Time: 03:09:59
(UTC+00:00)

PSLV R/B - Pass Details

Date: 23 October 2019
Orbit: 593 x 630 km, 97.9° (Epoch: 14 November)

Event Time Altitude Azimuth Distance (km) Brightness Sun altitude
Exits shadow 20:44:05 49° 65° (ENE) 785 4.1 -25.9°
Maximum altitude 20:44:49 57° 105° (ESE) 720 4.0 -25.8°
Drops below altitude 10° 20:49:02 10° 183° (S) 1,987 6.5 -25.1°
Sets 20:51:17 0° 187° (S) 2,906 7.4 -24.8°
